Location: Hawks Ness
(60.2333°N, 1.1667°W)
Time: 00:25:39
(UTC+00:00)

Spot 4 Rocket - Pass Details

Date: 22 October 2019
Orbit: 776 x 782 km, 98.7° (Epoch: 12 November)

Event Time Altitude Azimuth Distance (km) Brightness Sun altitude
Rises 04:12:08 0° 17° (NNE) 3,274 7.7 -21.4°
Reaches altitude 10° 04:14:30 10° 12° (NNE) 2,342 6.8 -21.1°
Maximum altitude 04:19:27 49° 299° (WNW) 1,004 4.3 -20.5°
Enters shadow 04:20:29 43° 264° (W) 1,095 4.3 -20.4°
